Wind_Speed
36 36 37 37 37 37 38 39 40 42 44 46 49 50 51 53 54 55 56 56 56 57 57 58 59 58 58 58 58 58 58 58 58 57 57 57 57 58 58 59 60 60 62
34 34 35 35 35 36 37 37 38 40 42 44 46 46 47 48 49 50 50 49 49 49 49 50 51 53 53 54 55 55 56 57 57 57 58 59 59 60 61 62 61 62 63
32 33 33 33 34 34 34 36 37 38 40 41 42 43 43 45 45 44 43 42 42 42 42 43 44 46 48 49 51 51 52 53 55 55 56 58 59 60 60 61 61 62 64
30 31 31 32 32 32 33 34 35 37 38 38 39 39 39 40 40 38 37 36 35 35 34 36 37 39 40 42 44 46 46 48 50 51 53 55 56 58 59 61 62 63 63
29 29 30 30 31 32 32 33 33 34 35 35 35 35 35 35 35 32 31 30 29 28 28 29 31 32 34 36 38 40 41 43 46 48 50 52 54 55 57 58 59 59 60
27 28 29 29 30 30 31 31 31 31 32 32 31 31 31 31 30 28 27 25 25 24 23 23 24 25 27 29 32 34 36 40 43 45 47 49 51 52 53 55 56 58 60
26 27 27 28 29 29 29 29 30 30 29 29 28 27 27 27 26 26 25 23 21 20 19 19 20 21 24 26 28 30 33 36 38 41 43 46 48 49 52 54 56 58 59
24 25 25 26 26 27 27 27 27 27 27 26 25 25 24 23 23 23 22 20 19 17 17 17 16 18 19 21 24 26 30 33 36 39 42 45 48 50 52 54 56 57 59
22 22 23 23 24 24 24 25 25 25 25 24 24 23 22 22 21 21 20 19 18 17 16 16 17 18 20 21 24 27 30 33 36 39 42 45 48 51 53 55 56 57 58
20 20 21 21 21 22 22 22 23 23 23 22 22 21 20 20 20 20 19 19 18 18 18 18 19 20 22 24 26 29 32 35 38 41 44 48 50 52 54 55 56 57 58
19 19 20 20 20 21 21 22 22 22 21 21 20 20 20 20 20 20 20 20 20 21 21 22 23 24 26 28 30 33 36 38 41 44 47 50 52 53 54 55 56 56 56
18 19 19 20 20 21 21 22 21 21 21 20 20 20 21 21 22 22 22 22 22 23 24 25 26 28 30 32 34 37 39 42 45 48 50 52 53 54 54 55 54 53 52
18 19 19 19 20 21 21 21 21 21 21 21 21 21 22 23 23 24 24 25 25 26 27 28 30 31 34 36 38 40 43 45 48 50 52 54 54 54 54 53 52 49 48
19 19 19 20 20 21 21 21 21 22 22 22 22 23 23 24 25 25 26 27 28 29 30 32 33 35 37 39 41 44 46 48 50 52 54 54 54 53 51 50 48 46 44
20 20 20 21 21 22 22 22 22 23 23 23 24 24 25 26 27 27 28 29 30 32 33 35 36 38 40 42 44 46 49 51 52 53 53 52 51 50 49 47 45 44 42
21 21 22 22 22 23 23 23 24 24 25 25 26 26 27 28 28 29 31 32 33 35 36 37 39 41 43 45 47 49 50 52 53 52 51 50 49 47 47 46 44 42 40
23 23 23 24 24 24 25 25 26 26 26 27 28 28 29 30 31 32 33 34 36 37 39 40 41 43 45 47 49 50 52 52 52 51 50 49 47 47 45 44 43 41 39
25 25 25 25 26 26 27 27 27 28 28 29 30 30 31 32 33 34 35 36 38 39 41 42 44 45 47 49 51 52 52 52 52 51 49 48 47 46 44 43 41 40 39
26 26 27 27 27 28 28 28 29 29 30 30 31 32 33 34 35 35 37 38 40 41 42 44 46 47 49 51 53 53 53 53 52 50 49 48 46 44 43 42 41 40 39
27 28 28 28 28 29 29 29 30 30 31 31 32 33 34 35 36 37 38 40 41 43 44 46 47 49 51 53 54 54 54 53 51 49 48 46 44 43 42 41 41 40 39
29 29 29 29 30 30 30 31 31 32 32 33 34 34 35 36 37 38 39 41 43 44 46 48 49 51 53 54 55 55 54 52 50 48 46 44 43 42 42 41 40 40 39
30 30 30 30 31 31 31 31 32 33 33 34 34 35 36 36 38 39 41 42 44 46 47 49 51 53 54 55 55 55 53 51 49 46 44 43 42 41 40 39 39 38 38
30 31 31 31 31 32 32 33 33 34 34 34 35 35 36 37 38 40 41 43 46 48 49 51 53 54 55 55 55 54 51 49 47 45 43 41 40 39 39 38 37 37 36
31 31 32 32 33 33 34 34 34 34 34 34 35 36 36 38 39 41 42 45 47 49 50 52 54 55 55 55 54 52 50 47 45 43 41 39 38 38 37 36 35 35 35
31 32 32 33 34 34 34 34 34 34 34 35 35 36 37 39 40 42 44 46 48 49 51 53 54 55 54 53 52 50 48 46 44 42 39 37 36 36 35 33 33 33 33
32 33 33 34 34 34 35 34 34 34 35 35 36 37 38 39 41 43 44 46 48 50 52 53 54 53 52 50 49 48 45 43 42 40 38 37 35 33 32 31 31 31 31
Wind_Direction
272 274 278 281 284 286 288 290 292 293 295 297 297 298 298 296 295 292 289 285 281 276 272 267 264 261 259 259 259 259 260 262 265 268 271 273 274 277 279 280 282 283 283
274 277 280 283 285 287 290 292 294 297 299 301 301 302 303 302 300 297 293 288 284 279 274 269 265 261 258 257 257 257 259 261 264 266 269 272 274 277 279 282 282 282 283
276 279 282 284 286 289 291 294 297 299 302 304 305 307 308 308 305 302 297 293 287 283 277 270 265 261 258 257 256 256 258 261 264 267 270 273 275 277 279 280 282 283 284
279 281 282 284 286 289 292 295 298 301 304 307 310 311 312 313 312 307 302 299 292 287 280 273 267 261 258 256 256 257 259 262 266 268 271 273 276 277 279 280 282 283 285
281 282 283 285 288 290 293 296 300 304 307 310 312 314 316 317 317 314 308 305 299 291 285 278 272 265 260 258 257 258 261 263 266 268 271 275 277 279 280 282 284 286 288
283 283 284 286 288 291 294 297 302 306 310 313 315 317 318 320 321 319 316 310 305 297 290 284 276 270 267 262 260 261 263 266 268 271 274 278 280 283 284 286 287 288 289
285 286 286 287 289 291 294 298 303 306 311 314 317 319 321 323 324 324 322 317 313 307 298 290 282 277 272 267 266 267 270 273 275 277 280 282 285 286 287 288 289 291 291
288 288 288 290 291 293 296 300 303 306 310 314 317 321 323 325 328 330 331 328 325 318 310 302 295 288 282 279 278 277 278 280 281 282 284 287 289 290 291 292 293 294 294
291 290 291 292 294 296 299 302 304 307 311 314 315 319 322 326 329 331 333 333 330 325 319 312 305 296 292 290 289 288 288 289 289 289 291 293 294 295 295 295 295 295 295
292 292 293 295 297 299 302 305 307 309 311 314 317 320 323 326 328 329 329 328 326 324 320 316 311 307 303 300 298 296 295 295 295 295 296 297 298 298 298 297 297 297 296
292 294 295 297 298 301 304 306 309 311 313 315 318 320 323 324 326 326 326 325 323 321 319 316 313 310 306 304 302 301 300 299 299 300 300 300 301 300 299 299 299 298 298
293 294 295 298 300 301 304 307 309 311 313 315 317 318 320 321 322 322 321 320 319 317 315 313 312 310 308 306 305 304 303 303 303 303 303 303 302 301 301 301 301 301 300
293 296 297 298 300 302 305 308 310 311 312 314 315 315 316 317 317 317 317 317 316 315 314 313 311 310 309 308 307 307 306 306 306 306 305 304 304 303 302 302 302 302 301
292 294 297 299 301 303 305 308 309 310 311 312 312 312 313 313 314 314 314 314 315 314 313 312 312 311 311 310 309 309 309 309 308 307 306 305 304 303 303 303 302 301 301
290 293 296 299 301 302 303 305 307 308 309 310 310 311 311 311 312 312 313 313 314 314 313 313 312 312 312 312 311 311 311 310 309 308 307 306 305 304 303 303 302 301 300
288 291 294 298 300 301 301 303 304 305 306 307 308 309 310 310 311 312 313 314 314 314 314 313 313 313 313 313 312 312 312 311 310 309 308 307 306 304 303 303 301 300 299
286 289 291 294 296 298 299 300 302 303 305 305 306 308 309 311 312 312 313 314 314 314 314 314 314 314 314 314 314 313 313 312 312 310 309 307 306 304 303 302 301 299 298
284 286 289 291 293 295 297 298 299 301 303 304 305 307 308 310 311 312 313 313 314 315 315 315 315 314 314 315 315 315 314 313 312 311 309 307 306 304 302 301 300 298 297
282 284 286 288 291 294 296 298 299 301 302 304 305 306 308 310 311 312 313 313 314 315 315 315 315 315 316 316 316 316 315 314 313 311 309 307 306 304 302 301 300 299 297
280 282 284 286 289 292 295 297 299 300 302 304 305 307 308 309 310 311 313 314 315 316 316 316 317 317 317 317 317 317 316 315 313 312 310 308 306 304 302 301 300 299 298
279 280 282 284 287 290 293 296 298 300 301 303 305 307 308 309 310 312 313 315 316 317 317 318 318 318 319 318 318 318 317 315 314 312 310 309 307 305 303 302 301 299 298
276 278 281 283 286 288 292 295 297 299 301 303 305 306 308 309 311 312 314 316 317 318 318 319 319 319 320 320 319 319 318 316 314 313 311 309 307 306 304 303 302 301 300
275 278 280 282 285 288 290 293 295 298 299 301 304 306 308 309 311 313 315 317 318 319 319 320 320 321 321 321 321 320 319 317 316 314 312 311 309 307 305 304 303 303 303
275 277 280 281 284 287 289 292 294 296 298 300 303 305 307 309 312 314 316 318 319 319 320 321 322 322 322 322 322 322 321 319 317 316 315 312 310 309 307 305 305 304 304
275 277 279 281 284 286 288 290 292 294 296 299 302 305 307 309 312 314 316 318 319 320 321 322 323 323 324 324 324 323 322 321 320 319 317 315 313 310 309 307 305 305 305
273 276 278 281 284 286 288 289 291 293 295 299 302 305 307 310 312 314 317 318 320 321 322 323 324 325 325 325 326 325 325 324 323 322 320 318 316 313 311 309 307 306 306
Height
5723 5722 5721 5719 5718 5716 5714 5711 5708 5704 5700 5695 5689 5683 5677 5670 5663 5656 5651 5646 5643 5640 5639 5640 5642 5644 5647 5650 5652 5655 5658 5660 5662 5663 5663 5664 5663 5662 5662 5660 5659 5657 5655
5713 5713 5711 5710 5708 5706 5703 5700 5697 5693 5688 5683 5677 5670 5663 5656 5649 5642 5635 5630 5627 5624 5623 5623 5625 5627 5630 5634 5637 5640 5643 5646 5648 5649 5650 5649 5649 5648 5647 5645 5643 5640 5638
5705 5703 5702 5700 5699 5696 5694 5691 5687 5683 5678 5672 5666 5659 5652 5644 5636 5630 5623 5618 5614 5611 5610 5610 5611 5613 5616 5620 5623 5627 5630 5632 5634 5636 5636 5636 5634 5633 5631 5629 5627 5624 5621
5696 5695 5693 5692 5690 5687 5685 5681 5678 5673 5668 5662 5656 5649 5642 5635 5627 5620 5614 5609 5605 5602 5600 5600 5600 5602 5605 5608 5612 5615 5618 5621 5622 5623 5623 5622 5620 5619 5617 5614 5611 5608 5604
5688 5686 5685 5683 5681 5679 5676 5673 5669 5665 5659 5654 5648 5642 5635 5628 5621 5614 5608 5603 5598 5595 5593 5592 5592 5594 5596 5599 5602 5605 5608 5609 5610 5611 5610 5609 5607 5605 5602 5599 5596 5591 5587
5680 5678 5677 5675 5673 5671 5669 5665 5661 5657 5652 5647 5641 5635 5629 5622 5616 5609 5604 5599 5594 5591 5589 5588 5587 5588 5590 5592 5595 5596 5598 5599 5600 5600 5599 5597 5594 5592 5588 5585 5581 5577 5572
5672 5671 5669 5668 5666 5664 5661 5658 5654 5650 5645 5640 5635 5629 5624 5618 5612 5606 5601 5596 5592 5589 5586 5585 5585 5585 5586 5587 5588 5589 5590 5590 5590 5589 5587 5585 5582 5579 5575 5571 5566 5560 5555
5666 5664 5663 5661 5659 5657 5654 5651 5648 5644 5639 5635 5630 5625 5619 5614 5609 5604 5599 5594 5590 5588 5585 5584 5583 5582 5582 5583 5583 5583 5582 5582 5581 5579 5576 5573 5569 5565 5560 5555 5550 5544 5537
5660 5658 5657 5655 5653 5651 5648 5645 5641 5638 5634 5629 5625 5620 5615 5611 5606 5602 5597 5593 5590 5587 5584 5582 5581 5580 5579 5578 5578 5577 5575 5573 5571 5568 5564 5560 5556 5551 5545 5539 5533 5528 5521
5654 5653 5651 5649 5647 5645 5642 5639 5636 5632 5628 5624 5620 5616 5611 5607 5603 5599 5595 5592 5588 5585 5583 5580 5578 5576 5574 5573 5571 5569 5567 5564 5561 5557 5552 5547 5541 5535 5529 5524 5517 5511 5504
5649 5647 5646 5644 5642 5639 5637 5634 5630 5627 5623 5619 5615 5612 5608 5604 5600 5597 5593 5589 5586 5583 5580 5577 5574 5572 5569 5567 5564 5561 5558 5554 5549 5544 5539 5533 5527 5520 5514 5507 5501 5494 5487
5644 5642 5641 5639 5636 5634 5631 5628 5625 5622 5618 5615 5611 5608 5604 5600 5597 5593 5589 5586 5582 5579 5576 5572 5569 5566 5563 5559 5555 5551 5547 5542 5537 5531 5525 5518 5512 5505 5498 5491 5484 5478 5471
5639 5637 5635 5633 5631 5628 5626 5623 5620 5617 5614 5610 5607 5603 5600 5596 5593 5589 5585 5581 5578 5574 5570 5566 5563 5559 5555 5550 5546 5541 5536 5530 5524 5517 5510 5503 5496 5489 5482 5476 5469 5463 5456
5633 5632 5630 5628 5625 5623 5620 5618 5615 5612 5609 5605 5602 5599 5595 5591 5588 5584 5580 5576 5572 5568 5564 5559 5555 5550 5546 5541 5535 5530 5524 5517 5510 5503 5495 5488 5481 5474 5467 5461 5455 5449 5444
5627 5626 5624 5622 5620 5617 5615 5612 5610 5607 5603 5600 5597 5593 5590 5586 5582 5578 5574 5570 5565 5561 5556 5551 5547 5542 5536 5530 5524 5518 5511 5504 5496 5488 5481 5473 5466 5459 5453 5447 5442 5436 5432
5621 5620 5618 5616 5614 5612 5609 5607 5604 5601 5597 5594 5591 5587 5584 5580 5576 5571 5567 5562 5558 5553 5548 5543 5538 5532 5526 5520 5513 5506 5499 5491 5483 5475 5467 5459 5452 5446 5439 5434 5428 5424 5419
5615 5613 5612 5610 5608 5606 5603 5601 5598 5595 5591 5588 5584 5581 5577 5573 5568 5564 5559 5554 5549 5544 5539 5534 5528 5522 5516 5509 5501 5494 5486 5477 5469 5461 5453 5446 5439 5433 5426 5421 5415 5411 5407
5608 5606 5605 5603 5601 5599 5597 5594 5591 5588 5585 5581 5577 5574 5570 5565 5561 5556 5551 5546 5541 5536 5530 5524 5518 5511 5504 5497 5489 5481 5472 5464 5456 5448 5440 5433 5426 5419 5413 5408 5403 5398 5394
5600 5599 5598 5596 5594 5592 5590 5587 5584 5581 5578 5574 5570 5566 5562 5558 5553 5548 5543 5538 5532 5526 5520 5514 5507 5500 5492 5484 5476 5468 5459 5451 5442 5434 5426 5419 5412 5406 5400 5395 5390 5386 5381
5592 5591 5590 5588 5587 5584 5582 5579 5576 5573 5570 5566 5563 5559 5554 5550 5545 5540 5535 5529 5523 5517 5510 5503 5496 5488 5480 5472 5463 5454 5445 5437 5428 5420 5413 5406 5399 5393 5388 5382 5377 5373 5369
5584 5583 5582 5580 5579 5576 5574 5572 5569 5565 5562 5558 5555 5550 5546 5541 5536 5531 5526 5520 5513 5507 5500 5492 5484 5477 5468 5459 5450 5441 5432 5423 5415 5407 5400 5393 5386 5380 5375 5370 5365 5360 5356
5575 5574 5573 5572 5570 5568 5566 5563 5560 5557 5554 5550 5546 5542 5538 5533 5528 5522 5517 5510 5504 5497 5489 5482 5473 5465 5456 5447 5437 5428 5418 5410 5402 5394 5387 5380 5374 5368 5363 5358 5353 5348 5344
5567 5566 5565 5563 5562 5560 5557 5555 5552 5549 5545 5542 5538 5534 5529 5524 5519 5514 5507 5501 5494 5487 5479 5471 5462 5453 5444 5434 5425 5415 5406 5397 5389 5382 5375 5369 5362 5357 5351 5347 5342 5337 5333
5558 5557 5556 5554 5553 5551 5549 5546 5543 5540 5537 5533 5529 5525 5521 5516 5510 5504 5498 5491 5484 5477 5469 5460 5451 5442 5432 5422 5412 5403 5394 5386 5378 5371 5364 5358 5352 5346 5341 5336 5332 5327 5323
5548 5548 5546 5545 5544 5542 5539 5537 5534 5531 5528 5525 5521 5516 5512 5507 5501 5495 5489 5482 5474 5466 5458 5450 5440 5431 5421 5411 5402 5392 5383 5375 5367 5360 5354 5348 5342 5336 5331 5327 5323 5318 5314
5539 5538 5537 5536 5534 5532 5530 5528 5525 5522 5519 5516 5512 5508 5503 5498 5492 5486 5479 5472 5465 5456 5448 5439 5430 5420 5411 5401 5392 5383 5374 5366 5358 5350 5344 5338 5333 5327 5322 5318 5314 5310 5306